• In Uzbekistan
  • List of Countries
  • For 7 days
  • Water Temperature
  • Satellite Maps
  • Weather Map
  • Weather Widgets
  • user-avatar
    Login

    Hourly Weather Gori

    Today, 18 November, Saturday

    Time Temperature Precipitation Wind Pressure Humidity
    00:00 +7°C° 0 mm 2 mps 703 mmHg 69%
    01:00 +7°C° 0 mm 2 mps 703 mmHg 70%
    02:00 +7°C° 0 mm 2 mps 704 mmHg 71%
    03:00 +7°C° 0 mm 2 mps 704 mmHg 75%
    04:00 +7°C° 0 mm 2 mps 704 mmHg 76%
    05:00 +7°C° 0 mm 2 mps 704 mmHg 76%
    06:00 +7°C° 0 mm 2 mps 704 mmHg 77%
    07:00 +8°C° 0 mm 2 mps 703 mmHg 73%
    08:00 +9°C° 0 mm 2 mps 703 mmHg 70%
    09:00 +9°C° 0 mm 3 mps 703 mmHg 67%
    10:00 +10°C° 0 mm 3 mps 703 mmHg 64%
    11:00 +11°C° 0 mm 3 mps 703 mmHg 62%
    12:00 +12°C° 0 mm 3 mps 702 mmHg 59%
    13:00 +12°C° 0 mm 3 mps 702 mmHg 59%
    14:00 +12°C° 0 mm 3 mps 702 mmHg 60%
    15:00 +12°C° 0 mm 3 mps 702 mmHg 60%
    16:00 +10°C° 0 mm 2 mps 702 mmHg 64%
    17:00 +9°C° 0 mm 2 mps 702 mmHg 68%
    18:00 +8°C° 0 mm 2 mps 702 mmHg 73%
    19:00 +8°C° 0 mm 2 mps 702 mmHg 71%
    20:00 +8°C° 0 mm 2 mps 702 mmHg 70%
    21:00 +7°C° 0 mm 2 mps 702 mmHg 68%
    22:00 +7°C° 0 mm 2 mps 702 mmHg 67%
    23:00 +7°C° 0 mm 2 mps 702 mmHg 66%

    Tomorrow, 19 November, Sunday

    Time Temperature Precipitation Wind Pressure Humidity
    00:00 +7°C° 0 mm 2 mps 701 mmHg 64%
    01:00 +7°C° 0 mm 2 mps 701 mmHg 64%
    02:00 +7°C° 0 mm 2 mps 701 mmHg 63%
    03:00 +7°C° 0 mm 2 mps 701 mmHg 62%
    04:00 +7°C° 0 mm 2 mps 701 mmHg 61%
    05:00 +7°C° 0 mm 2 mps 701 mmHg 60%
    06:00 +7°C° 0 mm 2 mps 700 mmHg 59%
    07:00 +8°C° 0 mm 2 mps 700 mmHg 54%
    08:00 +9°C° 0 mm 2 mps 700 mmHg 50%
    09:00 +10°C° 0 mm 2 mps 700 mmHg 46%
    10:00 +13°C° 0 mm 2 mps 700 mmHg 43%
    11:00 +14°C° 0 mm 2 mps 700 mmHg 41%
    12:00 +16°C° 0 mm 3 mps 700 mmHg 38%
    13:00 +16°C° 0 mm 3 mps 700 mmHg 38%
    14:00 +16°C° 0 mm 2 mps 699 mmHg 39%
    15:00 +16°C° 0 mm 2 mps 699 mmHg 39%
    16:00 +14°C° 0 mm 2 mps 699 mmHg 43%
    17:00 +13°C° 0 mm 2 mps 699 mmHg 46%
    18:00 +12°C° 0 mm 1 mps 699 mmHg 49%
    19:00 +12°C° 0 mm 1 mps 699 mmHg 51%
    20:00 +11°C° 0 mm 1 mps 699 mmHg 52%
    21:00 +11°C° 0 mm 1 mps 699 mmHg 53%
    22:00 +10°C° 0 mm 1 mps 699 mmHg 55%
    23:00 +10°C° 0 mm 1 mps 699 mmHg 57%

    Day after tomorrow, 20 November, Monday

    Time Temperature Precipitation Wind Pressure Humidity
    00:00 +10°C° 0 mm 1 mps 699 mmHg 58%
    01:00 +9°C° 0 mm 1 mps 699 mmHg 60%
    02:00 +9°C° 0 mm 1 mps 699 mmHg 61%
    03:00 +9°C° 0 mm 1 mps 699 mmHg 62%
    04:00 +9°C° 0 mm 1 mps 699 mmHg 63%
    05:00 +9°C° 0 mm 1 mps 699 mmHg 63%
    06:00 +8°C° 0 mm 1 mps 699 mmHg 64%
    07:00 +10°C° 0 mm 1 mps 699 mmHg 60%
    08:00 +11°C° 0 mm 1 mps 699 mmHg 57%
    09:00 +12°C° 0 mm 1 mps 699 mmHg 53%
    10:00 +13°C° 0 mm 2 mps 698 mmHg 49%
    11:00 +14°C° 0 mm 2 mps 698 mmHg 46%
    12:00 +16°C° 0 mm 2 mps 698 mmHg 42%
    13:00 +16°C° 0 mm 2 mps 697 mmHg 42%
    14:00 +16°C° 0 mm 3 mps 697 mmHg 43%
    15:00 +16°C° 0 mm 3 mps 697 mmHg 43%
    16:00 +14°C° 0 mm 2 mps 697 mmHg 48%
    17:00 +13°C° 0 mm 2 mps 697 mmHg 53%
    18:00 +11°C° 0 mm 1 mps 697 mmHg 57%
    19:00 +11°C° 0 mm 1 mps 696 mmHg 59%
    20:00 +10°C° 0 mm 2 mps 696 mmHg 61%
    21:00 +9°C° 0 mm 2 mps 696 mmHg 62%
    22:00 +9°C° 0 mm 2 mps 696 mmHg 63%
    23:00 +9°C° 0 mm 2 mps 696 mmHg 64%

    21 November, Tuesday

    Time Temperature Precipitation Wind Pressure Humidity
    00:00 +9°C° 0 mm 2 mps 696 mmHg 65%
    01:00 +9°C° 0 mm 2 mps 695 mmHg 65%
    02:00 +9°C° 0 mm 2 mps 695 mmHg 66%
    03:00 +8°C° 0 mm 2 mps 695 mmHg 66%
    04:00 +8°C° 0 mm 2 mps 694 mmHg 67%
    05:00 +8°C° 0 mm 2 mps 694 mmHg 68%
    06:00 +8°C° 0 mm 2 mps 694 mmHg 68%
    07:00 +9°C° 0.1 mm 2 mps 694 mmHg 66%
    08:00 +10°C° 0.1 mm 2 mps 694 mmHg 64%
    09:00 +10°C° 0.1 mm 2 mps 694 mmHg 62%
    10:00 +11°C° 0.1 mm 3 mps 693 mmHg 59%
    11:00 +12°C° 0.1 mm 3 mps 693 mmHg 57%
    12:00 +13°C° 0.1 mm 3 mps 692 mmHg 54%
    13:00 +13°C° 0 mm 3 mps 692 mmHg 54%
    14:00 +13°C° 0 mm 3 mps 691 mmHg 54%
    15:00 +13°C° 0 mm 3 mps 691 mmHg 53%
    16:00 +12°C° 0 mm 3 mps 691 mmHg 57%
    17:00 +12°C° 0 mm 2 mps 692 mmHg 60%
    18:00 +10°C° 0 mm 2 mps 692 mmHg 64%
    19:00 +10°C° 0.2 mm 2 mps 692 mmHg 67%
    20:00 +9°C° 0.2 mm 2 mps 692 mmHg 70%
    21:00 +9°C° 0.2 mm 2 mps 693 mmHg 73%
    22:00 +8°C° 0.9 mm 3 mps 693 mmHg 76%
    23:00 +8°C° 0.9 mm 3 mps 693 mmHg 80%

    22 November, Wednesday

    Time Temperature Precipitation Wind Pressure Humidity
    00:00 +6°C° 0.9 mm 4 mps 693 mmHg 83%
    01:00 +5°C° 0.5 mm 4 mps 694 mmHg 83%
    02:00 +5°C° 0.5 mm 4 mps 694 mmHg 83%
    03:00 +4°C° 0.5 mm 4 mps 694 mmHg 83%
    04:00 +4°C° 0.3 mm 4 mps 694 mmHg 83%
    05:00 +3°C° 0.3 mm 4 mps 695 mmHg 83%
    06:00 +3°C° 0.3 mm 4 mps 695 mmHg 82%
    07:00 +3°C° 0.2 mm 4 mps 695 mmHg 81%
    08:00 +3°C° 0.2 mm 4 mps 696 mmHg 79%
    09:00 +3°C° 0.2 mm 4 mps 696 mmHg 78%
    10:00 +3°C° 0.1 mm 4 mps 696 mmHg 74%
    11:00 +4°C° 0.1 mm 4 mps 696 mmHg 71%
    12:00 +4°C° 0.1 mm 4 mps 696 mmHg 67%
    13:00 +4°C° 0 mm 4 mps 696 mmHg 66%
    14:00 +4°C° 0 mm 3 mps 696 mmHg 65%
    15:00 +4°C° 0 mm 3 mps 696 mmHg 64%
    16:00 +4°C° 0 mm 2 mps 696 mmHg 68%
    17:00 +3°C° 0 mm 2 mps 697 mmHg 73%
    18:00 +3°C° 0 mm 1 mps 697 mmHg 77%
    19:00 +3°C° 0 mm 1 mps 697 mmHg 76%
    20:00 +3°C° 0 mm 1 mps 697 mmHg 75%
    21:00 +2°C° 0 mm 1 mps 698 mmHg 75%
    22:00 +2°C° 0 mm 1 mps 698 mmHg 73%
    23:00 +2°C° 0 mm 1 mps 698 mmHg 71%

    23 November, Thursday

    Time Temperature Precipitation Wind Pressure Humidity
    00:00 +2°C° 0 mm 1 mps 698 mmHg 69%
    01:00 +2°C° 0 mm 1 mps 698 mmHg 68%
    02:00 +2°C° 0 mm 1 mps 698 mmHg 67%
    03:00 +2°C° 0 mm 1 mps 698 mmHg 66%
    04:00 +2°C° 0.1 mm 1 mps 698 mmHg 68%
    05:00 +2°C° 0.1 mm 1 mps 699 mmHg 71%
    06:00 +2°C° 0.1 mm 1 mps 699 mmHg 73%
    07:00 +2°C° 0.1 mm 2 mps 699 mmHg 74%
    08:00 +2°C° 0.1 mm 2 mps 700 mmHg 74%
    09:00 +2°C° 0.1 mm 2 mps 700 mmHg 75%
    10:00 +2°C° 0 mm 3 mps 700 mmHg 73%
    11:00 +2°C° 0 mm 3 mps 700 mmHg 71%
    12:00 +3°C° 0 mm 4 mps 700 mmHg 69%
    13:00 +3°C° 0.1 mm 4 mps 700 mmHg 70%
    14:00 +3°C° 0.1 mm 4 mps 700 mmHg 71%
    15:00 +3°C° 0.1 mm 4 mps 700 mmHg 72%
    16:00 +2°C° 0.1 mm 3 mps 701 mmHg 75%
    17:00 +1°C° 0.1 mm 3 mps 701 mmHg 78%
    18:00 +2°C° 0.1 mm 2 mps 702 mmHg 82%
    19:00 +2°C° 0.1 mm 2 mps 702 mmHg 82%
    20:00 +1°C° 0.1 mm 2 mps 702 mmHg 81%
    21:00 +1°C° 0.1 mm 2 mps 702 mmHg 81%
    22:00 +1°C° 0.1 mm 2 mps 703 mmHg 81%
    23:00 +1°C° 0.1 mm 2 mps 703 mmHg 81%
    Show more